This is the latest recevied weather packets stored in our database for station/object KE0LFX. If no packets are shown the sender has not sent any weather packets the latest 10 day(s).
| Time | Temp. | Humidity | Pressure | Rain* | Wind** | Luminosity | Snow |
|---|---|---|---|---|---|---|---|
| 1776909886 | 21.11° C | 76% | 1015.5 hPa | 0 mm | - | 0 W/m² | - |
| 1776909583 | 21.67° C | 75% | 1015.4 hPa | 0 mm | - | 0 W/m² | - |
| 1776909280 | 21.67° C | 75% | 1015.3 hPa | 0 mm | - | 0 W/m² | - |
| 1776908977 | 21.67° C | 75% | 1015 hPa | 0 mm | - | 0 W/m² | - |
| 1776908676 | 21.67° C | 74% | 1015.5 hPa | 0 mm | - | 0 W/m² | - |
| 1776908373 | 22.22° C | 74% | 1015.2 hPa | 0 mm | - | 0 W/m² | - |
| 1776908069 | 22.22° C | 74% | 1015 hPa | 0 mm | - | 0 W/m² | - |
| 1776907765 | 22.22° C | 73% | 1015.1 hPa | 0 mm | - | 0 W/m² | - |
| 1776907463 | 22.78° C | 73% | 1015.2 hPa | 0 mm | - | 0 W/m² | - |
| 1776907160 | 22.78° C | 73% | 1015.1 hPa | 0 mm | - | 0 W/m² | - |
| 1776906856 | 22.78° C | 72% | 1015.1 hPa | 0 mm | - | 0 W/m² | - |
| 1776906554 | 22.78° C | 72% | 1015.3 hPa | 0 mm | - | 0 W/m² | - |
| 1776906250 | 23.33° C | 72% | 1015.1 hPa | 0 mm | - | 0 W/m² | - |
| 1776905948 | 23.33° C | 72% | 1015.1 hPa | 0 mm | - | 0 W/m² | - |
| 1776905643 | 23.33° C | 72% | 1015 hPa | 0 mm | - | 2 W/m² | - |
| 1776905339 | 23.89° C | 71% | 1015.1 hPa | 0 mm | - | 3 W/m² | - |
| 1776905036 | 23.89° C | 71% | 1015 hPa | 0 mm | - | 7 W/m² | - |
| 1776904733 | 23.89° C | 70% | 1015 hPa | 0 mm | - | 10 W/m² | - |
| 1776904430 | 24.44° C | 69% | 1014.9 hPa | 0 mm | - | 14 W/m² | - |
| 1776904126 | 24.44° C | 69% | 1014.9 hPa | 0 mm | - | 18 W/m² | - |
| 1776903822 | 24.44° C | 68% | 1015 hPa | 0 mm | - | 24 W/m² | - |
* Rain latest hour (hover to see other rain measurements)
** Current wind speed in m/s (hover to see current wind gust speed)